Location: Hillier
(43.9756°N, 77.4511°W)
Time: 23:51:56
(UTC+00:00)

Daily predictions for brighter satellites

Satellite Brightness Start Highest point End
(mag) Time Altitude Azimuth Time Altitude Azimuth Time Altitude Azimuth
GEOS 3 Rocket 4.3 21:58:18 10° NE 22:03:23 41° ESE 22:08:25 10° S
IRIDIUM 103 4.4 21:59:53 10° N 22:05:05 63° E 22:10:14 10° SSE
Cosmos 2084 Rocket 4.2 22:01:17 10° NW 22:05:25 57° WSW 22:09:32 10° SSE
Meteor 1-28 Rocket 2.8 22:02:24 10° NNE 22:05:44 71° ESE 22:09:01 10° S
CZ-2D R/B 4.1 22:03:23 10° ESE 22:05:44 20° ENE 22:08:08 10° NNE
Gbstr 26 Del rocket 3.2 22:02:43 10° WSW 22:06:56 55° NNW 22:10:41 10° NE
Cosmos 1655 Rocket 4.4 22:04:39 10° N 22:10:31 40° ENE 22:16:18 10° SE
Aureole 1 Rocket 4.0 22:07:21 10° SSE 22:11:29 36° E 22:16:36 10° NE
Cosmos 2297 Rocket 3.3 22:07:11 10° NW 22:12:40 51° WSW 22:18:05 10° S
Cosmos 1782 4.4 22:10:04 10° SW 22:13:19 32° WNW 22:16:35 10° N
SAR-Lupe-4 4.3 22:12:19 10° SE 22:15:26 30° ENE 22:18:36 10° N
EXPRESS MD2 2.9 22:13:37 10° SW 22:15:49 44° SE 22:18:41 11° ENE
Meteor 1-20 Rocket 4.2 22:10:25 10° N 22:15:54 87° W 22:21:24 10° S
ARIANE 5 R/B 2.8 22:11:57 10° SE 22:16:45 45° ENE 22:21:39 10° N
Cosmos 1726 Rocket 3.9 22:13:48 10° S 22:18:17 52° E 22:22:43 10° NNE
SL-16 R/B 4.0 22:19:34 10° ESE 22:20:19 10° E 22:21:03 10° E
IRIDIUM 106 4.4 22:18:09 10° N 22:23:24 89° W 22:28:37 10° S
Cosmos 1867 4.1 22:19:31 10° NW 22:24:56 64° WSW 22:30:17 10° SSE
UNK 3.7 22:21:09 10° NNE 22:25:44 72° ESE 22:30:15 10° S
Cosmos 1743 4.4 22:23:41 10° NNW 22:26:33 30° W 22:29:25 10° SSW
CORIOLIS 4.1 22:22:27 10° SSE 22:27:46 79° ENE 22:33:08 10° NNW
Cosmos 2266 Rocket 4.1 22:21:43 10° N 22:27:50 82° W 22:33:52 10° S
YAOGAN 1 4.0 22:26:27 10° ESE 22:29:11 17° ENE 22:31:55 10° NNE
Cosmos 1933 3.4 22:26:19 10° SSW 22:30:07 72° W 22:33:58 10° N
AQUARIUS 4.4 22:27:13 10° SE 22:31:24 44° ENE 22:35:35 10° N
Cosmos 1844 Rocket 4.2 22:29:14 10° N 22:32:44 16° NE 22:34:41 14° ENE
Cosmos 1980 Rocket 2.2 22:27:34 10° SSW 22:33:10 67° ESE 22:38:45 10° NNE
IRS-1C 4.1 22:28:47 10° SSE 22:34:01 64° ENE 22:39:17 10° N
NOSS 3-2 (C) 4.3 22:30:41 10° WSW 22:35:25 36° NW 22:41:02 10° NNE
Lacrosse 5 rocket 3.3 22:34:32 10° NNW 22:35:36 11° N 22:36:40 10° NNE
Cosmos 2219 3.5 22:32:21 10° NNW 22:37:52 46° ENE 22:43:22 10° SE
Meteor 2-20 4.5 22:32:53 10° S 22:38:54 62° E 22:44:58 10° NNE
Meteor 2-10 4.4 22:34:22 10° N 22:39:39 48° ENE 22:45:02 10° SSE
Cosmos 2263 Rocket 2.1 22:36:31 10° NNW 22:42:12 71° ENE 22:47:52 10° SSE
USA 81 4.3 22:37:48 10° N 22:42:52 45° E 22:47:54 10° SSE
Okean 1-7 Rocket 4.4 22:39:05 10° NNW 22:43:20 52° W 22:47:33 10° S
SJ-12 3.6 22:41:04 10° SSE 22:44:48 69° ENE 22:48:35 10° N
SPOT 1/Viking Rocket 3.9 22:40:10 10° SE 22:44:59 40° ENE 22:49:49 10° N
CZ-4C R/B 4.0 22:38:12 10° NW 22:45:21 53° WSW 22:53:53 10° SSE
Meteor 1-26 Rocket 4.4 22:41:58 10° SSE 22:47:03 45° E 22:52:11 10° NNE
USA 308 4.1 22:44:56 10° SSE 22:47:06 17° ESE 22:47:47 16° ESE
SKYMED 2 4.2 22:45:05 12° NNE 22:48:42 36° E 22:52:42 10° SSE
COSMOS 2455 3.6 22:43:57 10° S 22:49:09 31° ESE 22:52:28 19° ENE
SMAP 3.5 22:45:38 10° S 22:50:16 68° WSW 22:54:55 10° NNW
MOS 1 Rocket 3.4 22:47:12 10° SSE 22:52:10 74° ENE 22:57:25 10° N
Cosmos 1538 Rocket 4.0 22:47:07 10° NNW 22:52:27 80° ENE 22:57:46 10° SSE
Cosmos 1553 Rocket 4.3 22:47:08 10° SSE 22:52:51 42° E 22:58:42 10° NNE
Meteor 1-5 Rocket 4.2 22:47:41 10° NNW 22:53:06 85° W 22:58:39 10° S
Cosmos 2369 3.9 22:48:09 10° S 22:53:41 55° ESE 22:58:19 15° NE
Landsat 7 3.9 22:49:20 10° S 22:53:58 80° WSW 22:58:39 10° NNW
COSMO-SKYMED 1 3.4 22:53:03 23° ENE 22:54:11 26° E 22:57:39 10° SSE
Cosmos 1953 Rocket 3.5 22:50:35 10° N 22:55:04 86° E 22:59:31 10° S
Cosmos 1805 3.2 22:51:59 10° N 22:55:11 41° ENE 22:58:23 10° SSE
Meteor 2-20 Rocket 4.4 22:53:52 10° S 22:59:59 64° E 23:05:53 10° NNE
Cosmos 1076 Rocket 3.7 22:57:43 10° NNW 23:02:02 72° W 23:06:19 10° S
SAR-Lupe-3 3.5 23:02:29 58° E 23:02:36 59° ESE 23:05:02 10° S
Cosmos 2227 Rocket 3.4 22:59:07 10° NW 23:04:28 45° WSW 23:09:47 10° S
NOSS 2-3 (C) 4.4 23:02:24 10° WSW 23:05:35 33° NW 23:07:57 16° NNE
Cosmos 2360 Rocket 4.2 23:03:49 10° ESE 23:03:50 10° ESE 23:03:50 10° ESE
Cosmos 2221 4.2 23:08:42 10° SE 23:09:58 16° SE 23:09:58 16° SE
Cosmos 1697 Rocket 4.3 23:07:28 10° WSW 23:12:23 31° NW 23:17:21 10° N
Cosmos 372 Rocket 4.2 23:07:17 10° SSW 23:12:25 71° WNW 23:17:16 11° NNE
Cosmos 1898 Rocket 3.5 23:10:53 10° SSW 23:16:02 81° WNW 23:20:26 15° NNE
BREEZE-M DEB (TANK) 4.1 23:13:44 10° WNW 23:17:33 67° NNE 23:25:47 19° ESE
Cosmos 1244 Rocket 4.4 23:11:20 10° N 23:17:35 74° E 23:23:45 10° SSE
Spot 4 Rocket 4.0 23:13:10 10° SSE 23:18:08 56° ENE 23:23:09 10° N
SL-16 R/B 4.4 23:17:10 10° N 23:22:11 27° WNW 23:27:11 10° WSW
IRS-P3 4.4 23:17:44 10° S 23:23:01 69° WSW 23:28:20 10° NNW
BREEZE-M DEB (TANK) 4.1 23:17:01 10° SW 23:24:58 44° SSE 23:26:18 35° ESE
Cosmos 2112 Rocket 4.3 23:20:03 10° N 23:24:59 42° ENE 23:25:57 38° E
CZ-4 R/B 4.3 23:21:20 10° S 23:25:16 82° WSW 23:29:14 10° NNW
Cosmos 2333 Rocket 3.2 23:20:33 10° SSE 23:24:52 28° ESE 23:24:52 28° ESE
SL-08 R/B 4.4 23:20:16 10° N 23:26:38 73° E 23:32:56 10° SSE
Helios 1A Rocket 4.3 23:28:50 19° SSE 23:28:50 19° SSE 23:30:03 10° S
Okean 1 3.2 23:23:50 10° SSW 23:27:24 69° W 23:29:13 27° N
Cosmos 1937 Rocket 3.4 23:24:20 10° SSW 23:29:30 84° WNW 23:32:50 23° NNE
Cosmos 1386 Rocket 4.5 23:23:34 10° N 23:29:36 56° ENE 23:35:41 10° SSE
Cosmos 2058 Rocket 3.7 23:26:28 10° SSW 23:30:51 56° W 23:35:17 10° N
Cosmos 2322 Rocket 3.6 23:27:59 10° SSE 23:30:37 21° SE 23:30:37 21° SE
Cosmos 858 Rocket 4.3 23:28:34 10° SSW 23:33:43 76° ESE 23:35:58 35° NNE
Cosmos 923 Rocket 3.8 23:28:30 10° NNW 23:33:43 80° ENE 23:38:53 10° SSE
USA 238 DEB 4.3 23:30:54 10° WSW 23:36:47 47° NW 23:41:16 19° NNE
USA 238 4.3 23:30:59 10° WSW 23:36:53 47° NW 23:41:22 20° NNE
Cosmos-2242 3.9 23:34:18 10° SSW 23:38:23 48° WNW 23:42:18 11° N
Cosmos 967 Rocket 4.5 23:32:30 10° SW 23:38:52 83° WNW 23:42:26 29° NNE
USA 215 4.3 23:36:57 25° NNE 23:38:54 29° N 23:44:20 10° NW
Meteor 1-14 Rocket 4.2 23:37:11 10° N 23:42:50 57° ENE 23:48:19 10° SSE
Cosmos 494 Rocket 4.3 23:38:22 10° N 23:42:43 46° NE 23:42:43 46° NE
MINOTAUR IV R/B 4.5 23:39:21 10° NNW 23:43:46 83° WSW 23:46:23 24° SSE
SL-24 R/B - RUBIN 2 4.0 23:42:36 10° SW 23:48:02 76° NW 23:49:24 49° NNE
Cosmos 1844 4.1 23:42:43 10° NNW 23:47:04 41° NNE 23:47:04 41° NNE
Cosmos 44 Rocket 3.9 23:43:07 10° NNW 23:47:12 43° NNE 23:47:12 43° NNE
Resurs 1-3 3.6 23:44:49 10° S 23:49:06 76° WSW 23:53:26 10° NNW
SWAS 4.4 23:49:02 10° SSW 23:52:55 72° W 23:52:55 72° W
Gbstr 26 Del rocket 4.4 23:50:30 10° WNW 23:53:00 23° NNW 23:53:00 23° NNW
Cosmos 2082 4.2 23:48:20 10° NNW 23:53:57 59° WSW 23:59:33 10° S
CZ-2D R/B 4.2 23:51:15 10° S 23:55:20 51° W 23:59:22 10° NNW
